GW1213 Weather Reports


time (UTC)temp
C
wind
direction
speed
KPH
gust
KPH
rain 1hr
cm
rain 24hr
cm
rain mn
cm
humidity
%
barometer
mb
20260903174604 30 0 0.0 1.6 0.00 0.00 0.00 74 1015.6
20260903174037 30 0 0.0 3.2 0.00 0.00 0.00 73 1015.6
20260903173538 30 0 0.0 4.8 0.00 0.00 0.00 73 1015.8
20260903173110 30 348 1.6 4.8 0.00 0.00 0.00 74 1015.9
20260903172538 30 360 0.0 4.8 0.00 0.00 0.00 75 1016.0
20260903172034 30 0 0.0 4.8 0.00 0.00 0.00 76 1016.2
20260903171602 30 28 0.0 4.8 0.00 0.00 0.00 76 1016.2
20260903171034 29 352 0.0 4.8 0.00 0.00 0.00 77 1016.3
20260903170537 29 0 0.0 3.2 0.00 0.00 0.00 78 1016.4
20260903170059 28 0 0.0 4.8 0.00 0.00 0.00 80 1016.4
20260903165538 28 11 0.0 6.4 0.00 0.00 0.00 81 1016.5
20260903165040 27 71 1.6 6.4 0.00 0.00 0.00 82 1016.5
20260903164605 27 0 1.6 8.0 0.00 0.00 0.00 81 1016.4
20260903164039 27 68 4.8 8.0 0.00 0.00 0.00 81 1016.3
20260903163538 27 69 3.2 8.0 0.00 0.00 0.00 81 1016.3
20260903163102 27 77 0.0 3.2 0.00 0.00 0.00 81 1016.6
20260903162538 27 0 1.6 3.2 0.00 0.00 0.00 82 1016.6
20260903162035 27 0 0.0 4.8 0.00 0.00 0.00 82 1016.6
20260903161617 27 0 0.0 6.4 0.00 0.00 0.00 82 1016.8
20260903161041 27 0 1.6 6.4 0.00 0.00 0.00 82 1016.8
20260903160537 27 71 0.0 6.4 0.00 0.00 0.00 82 1017.0
20260903160058 27 196 1.6 6.4 0.00 0.00 0.00 84 1017.0
20260903155537 26 0 1.6 4.8 0.00 0.00 0.00 87 1017.1
20260903155037 26 0 1.6 4.8 0.00 0.00 0.00 87 1017.0
20260903154602 26 196 0.0 4.8 0.00 0.00 0.00 88 1017.1
20260903154038 26 0 0.0 0.0 0.00 0.00 0.00 88 1017.3
20260903153538 25 0 0.0 0.0 0.00 0.00 0.00 89 1017.4
20260903153102 25 0 0.0 0.0 0.00 0.00 0.00 89 1017.3
20260903152538 25 0 0.0 0.0 0.00 0.00 0.00 90 1017.4
20260903152038 25 0 0.0 0.0 0.00 0.00 0.00 91 1017.4
20260903151604 25 0 0.0 0.0 0.00 0.00 0.00 91 1017.3
20260903151037 25 0 0.0 0.0 0.00 0.00 0.00 91 1017.3
20260903150535 25 0 0.0 1.6 0.00 0.00 0.00 91 1017.1
20260903150108 25 0 0.0 4.8 0.00 0.00 0.00 91 1017.0
20260903145537 25 0 0.0 4.8 0.00 0.00 0.00 92 1016.9
20260903145038 24 0 1.6 4.8 0.00 0.00 0.00 92 1016.9
20260903144600 24 0 1.6 4.8 0.00 0.00 0.00 92 1016.8
20260903144037 24 74 1.6 6.4 0.00 0.00 0.00 93 1016.7
20260903143539 24 71 0.0 6.4 0.00 0.00 0.00 93 1016.7
20260903143101 24 0 0.0 6.4 0.00 0.00 0.00 93 1016.8
20260903142541 24 0 0.0 4.8 0.00 0.00 0.00 93 1017.0
20260903142038 24 0 0.0 4.8 0.00 0.00 0.00 94 1016.8
20260903141600 24 0 0.0 4.8 0.00 0.00 0.00 93 1016.8
20260903141041 24 0 0.0 4.8 0.00 0.00 0.00 93 1016.9
20260903140538 24 0 0.0 0.0 0.00 0.00 0.00 93 1017.0
20260903140109 24 0 0.0 0.0 0.00 0.00 0.00 94 1017.0
20260903135537 23 0 0.0 0.0 0.00 0.00 0.00 94 1017.0
20260903135037 23 0 0.0 0.0 0.00 0.00 0.00 94 1016.9
20260903134610 23 0 0.0 0.0 0.00 0.00 0.00 94 1016.8
20260903134038 23 0 0.0 0.0 0.00 0.00 0.00 94 1016.8
20260903133538 23 0 0.0 4.8 0.00 0.00 0.00 94 1016.8
20260903133102 23 0 0.0 4.8 0.00 0.00 0.00 94 1016.9
20260903132537 23 86 0.0 3.2 0.00 0.00 0.00 94 1017.1
20260903132037 23 0 0.0 4.8 0.00 0.00 0.00 94 1017.2
20260903131559 23 0 0.0 4.8 0.00 0.00 0.00 94 1017.2
20260903131038 23 0 0.0 4.8 0.00 0.00 0.00 95 1017.1
20260903130537 23 20 0.0 0.0 0.00 0.00 0.00 95 1017.3
20260903130104 23 0 0.0 0.0 0.00 0.00 0.00 95 1017.4
20260903125538 23 0 0.0 0.0 0.00 0.00 0.00 96 1017.5
20260903125038 23 0 0.0 1.6 0.00 0.00 0.00 96 1017.5
20260903124606 23 0 0.0 3.2 0.00 0.00 0.00 96 1017.5
20260903124037 23 331 0.0 6.4 0.00 0.00 0.00 96 1017.5
20260903123537 23 0 1.6 6.4 0.00 0.00 0.00 96 1017.5
20260903123058 23 338 3.2 6.4 0.00 0.00 0.00 96 1017.5
20260903122538 23 313 0.0 0.0 0.00 0.00 0.00 97 1017.4
20260903122039 23 0 0.0 0.0 0.00 0.00 0.00 97 1017.5
20260903121601 23 0 0.0 0.0 0.00 0.00 0.00 97 1017.1
20260903121040 23 0 0.0 0.0 0.00 0.00 0.00 97 1017.0
20260903120540 23 0 0.0 0.0 0.00 0.00 0.00 97 1017.0
20260903120106 23 0 0.0 0.0 0.00 0.00 0.00 97 1016.7
20260903115538 23 0 0.0 0.0 0.00 0.00 0.00 97 1016.7
20260903115035 23 0 0.0 0.0 0.00 0.00 0.00 97 1016.6
20260903114601 23 0 0.0 0.0 0.00 0.00 0.00 97 1016.6
20260903114037 23 0 0.0 0.0 0.00 0.00 0.00 97 1016.6
20260903113542 23 0 0.0 0.0 0.00 0.00 0.00 97 1016.5
20260903113059 22 0 0.0 0.0 0.00 0.00 0.00 97 1016.4
20260903112538 22 0 0.0 0.0 0.00 0.00 0.00 97 1016.4
20260903112038 22 0 0.0 0.0 0.00 0.00 0.00 97 1016.3
20260903111558 22 0 0.0 0.0 0.00 0.00 0.00 97 1016.3
20260903111038 22 0 0.0 0.0 0.00 0.00 0.00 96 1016.2
20260903110538 22 0 0.0 0.0 0.00 0.00 0.00 96 1016.0
20260903105538 22 0 0.0 0.0 0.00 0.00 0.00 96 1015.8
20260903105038 22 0 0.0 0.0 0.00 0.00 0.00 96 1015.8
20260903104602 22 0 0.0 0.0 0.00 0.00 0.00 96 1015.7
20260903104037 22 0 0.0 0.0 0.00 0.00 0.00 96 1015.7
20260903103536 22 0 0.0 0.0 0.00 0.00 0.00 96 1015.7
20260903103100 22 0 0.0 0.0 0.00 0.00 0.00 96 1015.7
20260903102534 22 0 0.0 0.0 0.00 0.00 0.00 96 1015.6
20260903102037 22 0 0.0 0.0 0.00 0.00 0.00 96 1015.6
20260903101557 22 0 0.0 0.0 0.00 0.00 0.00 96 1015.6
20260903101037 22 0 0.0 0.0 0.00 0.00 0.00 96 1015.6
20260903100537 22 0 0.0 0.0 0.00 0.00 0.00 96 1015.6
20260903095535 22 0 0.0 0.0 0.00 0.00 0.00 96 1015.7
20260903095037 22 0 0.0 0.0 0.00 0.00 0.00 96 1015.7
20260903094610 22 0 0.0 0.0 0.00 0.00 0.00 96 1015.8
20260903094038 22 0 0.0 0.0 0.00 0.00 0.00 96 1015.9
20260903093541 22 0 0.0 0.0 0.00 0.00 0.00 96 1015.9
20260903093103 22 0 0.0 0.0 0.00 0.00 0.00 96 1015.9
20260903092537 22 0 0.0 0.0 0.00 0.00 0.00 96 1015.9
20260903092035 22 0 0.0 0.0 0.00 0.00 0.00 96 1015.7
20260903091603 22 0 0.0 0.0 0.00 0.00 0.00 96 1015.8
20260903091041 22 0 0.0 0.0 0.00 0.00 0.00 96 1015.8
20260903090535 22 0 0.0 0.0 0.00 0.00 0.00 95 1015.8
20260903085539 22 0 0.0 0.0 0.00 0.00 0.00 96 1015.8
20260903085037 22 0 0.0 0.0 0.00 0.00 0.00 96 1015.7
20260903084600 22 0 0.0 0.0 0.00 0.00 0.00 96 1015.7
20260903084038 22 0 0.0 0.0 0.00 0.00 0.00 96 1015.6
20260903083539 22 0 0.0 0.0 0.00 0.00 0.00 96 1015.5
20260903083106 22 0 0.0 0.0 0.00 0.00 0.00 95 1015.6
20260903082541 22 0 0.0 0.0 0.00 0.00 0.00 95 1015.5
20260903082040 22 0 0.0 0.0 0.00 0.00 0.00 95 1015.6
20260903081601 22 0 0.0 0.0 0.00 0.00 0.00 95 1015.6
20260903081041 22 0 0.0 0.0 0.00 0.00 0.00 95 1015.7
20260903080537 22 0 0.0 0.0 0.00 0.00 0.00 95 1015.5
20260903075538 22 0 0.0 0.0 0.00 0.00 0.00 95 1015.6
20260903075041 22 0 0.0 0.0 0.00 0.00 0.00 95 1015.6
20260903074558 22 0 0.0 0.0 0.00 0.00 0.00 95 1015.6
20260903074036 22 0 0.0 0.0 0.00 0.00 0.00 95 1015.6
20260903073536 22 0 0.0 0.0 0.00 0.00 0.00 95 1015.4
20260903073110 22 0 0.0 0.0 0.00 0.00 0.00 95 1015.4
20260903072538 22 0 0.0 0.0 0.00 0.00 0.00 95 1015.3
20260903072038 22 0 0.0 0.0 0.00 0.00 0.00 95 1015.3
20260903071601 22 0 0.0 0.0 0.00 0.00 0.00 95 1015.4
20260903071035 22 0 0.0 0.0 0.00 0.00 0.00 95 1015.3
20260903070540 22 0 0.0 0.0 0.00 0.00 0.00 95 1015.3
20260903070108 22 0 0.0 0.0 0.00 0.00 0.00 95 1015.4
20260903065535 22 0 0.0 0.0 0.00 0.00 0.00 95 1015.5
20260903065038 22 0 0.0 0.0 0.00 0.00 0.00 95 1015.6
20260903064557 22 0 0.0 0.0 0.00 0.00 0.00 95 1015.6
20260903064035 22 0 0.0 0.0 0.00 0.00 0.00 95 1015.7
20260903063539 22 0 0.0 0.0 0.00 0.00 0.00 94 1015.8
20260903063125 22 0 0.0 0.0 0.00 0.00 0.00 94 1015.7
20260903062538 22 0 0.0 0.0 0.00 0.00 0.00 94 1015.9
20260903062036 22 0 0.0 0.0 0.00 0.00 0.00 94 1016.0
20260903061559 22 0 0.0 0.0 0.00 0.00 0.00 94 1016.1
20260903061035 22 0 0.0 0.0 0.00 0.00 0.00 94 1016.1
20260903060534 22 0 0.0 0.0 0.00 0.00 0.00 94 1016.1
20260903060104 22 0 0.0 0.0 0.00 0.00 0.00 94 1016.2
20260903055536 22 0 0.0 0.0 0.00 0.00 0.00 94 1016.3
20260903055035 22 0 0.0 0.0 0.00 0.00 0.00 94 1016.3
20260903054558 22 0 0.0 0.0 0.00 0.00 0.00 94 1016.5
20260903054037 22 0 0.0 0.0 0.00 0.00 0.00 94 1016.5
20260903053536 22 0 0.0 0.0 0.00 0.00 0.00 94 1016.5
20260903053059 22 0 0.0 0.0 0.00 0.00 0.00 94 1016.6
20260903052536 22 0 0.0 0.0 0.00 0.00 0.00 94 1016.4
20260903052035 22 0 0.0 0.0 0.00 0.00 0.00 94 1016.4
20260903051604 22 0 0.0 0.0 0.00 0.00 0.00 94 1016.5
20260903051038 23 0 0.0 0.0 0.00 0.00 0.00 94 1016.6
20260903050542 23 0 0.0 0.0 0.00 0.00 0.00 94 1016.6
20260903050104 23 0 0.0 0.0 0.00 0.00 0.00 94 1016.7
20260903045536 23 0 0.0 0.0 0.00 0.00 0.00 94 1016.6
20260903045038 23 0 0.0 0.0 0.00 0.00 0.00 94 1016.7
20260903044558 23 0 0.0 0.0 0.00 0.00 0.00 93 1016.7
20260903044039 23 0 0.0 0.0 0.00 0.00 0.00 93 1016.7
20260903043538 23 0 0.0 0.0 0.00 0.00 0.00 93 1016.7
20260903043108 23 0 0.0 0.0 0.00 0.00 0.00 93 1016.7
20260903042534 23 0 0.0 0.0 0.00 0.00 0.00 93 1016.8
20260903042035 23 0 0.0 0.0 0.00 0.00 0.00 93 1016.8
20260903041606 23 0 0.0 0.0 0.00 0.00 0.00 93 1016.6
20260903041034 23 0 0.0 0.0 0.00 0.00 0.00 93 1016.6
20260903040540 23 0 0.0 0.0 0.00 0.00 0.00 93 1016.7
20260903040105 23 0 0.0 0.0 0.00 0.00 0.00 93 1016.6
20260903035535 23 0 0.0 0.0 0.00 0.00 0.00 93 1016.7
20260903035035 23 0 0.0 0.0 0.00 0.00 0.00 93 1016.7
20260903034558 23 0 0.0 0.0 0.00 0.00 0.00 93 1016.7
20260903034036 23 0 0.0 0.0 0.00 0.00 0.00 93 1016.6
20260903033535 23 0 0.0 0.0 0.00 0.00 0.00 94 1016.5
20260903033058 23 0 0.0 0.0 0.00 0.00 0.00 94 1016.4
20260903032535 23 0 0.0 0.0 0.00 0.00 0.00 93 1016.4
20260903032037 23 0 0.0 0.0 0.00 0.00 0.00 93 1016.2
20260903031600 23 0 0.0 0.0 0.00 0.00 0.00 93 1016.1
20260903031038 23 0 0.0 0.0 0.00 0.00 0.00 93 1016.1
20260903030540 23 0 0.0 0.0 0.00 0.00 0.00 93 1016.1
20260903030110 23 0 0.0 0.0 0.00 0.00 0.00 93 1016.1
20260903025535 23 0 0.0 0.0 0.00 0.00 0.00 93 1016.0
20260903025035 23 0 0.0 0.0 0.00 0.00 0.00 93 1016.0
20260903024558 23 0 0.0 0.0 0.00 0.00 0.00 92 1015.9
20260903024037 23 0 0.0 0.0 0.00 0.00 0.00 92 1016.0
20260903023535 23 0 0.0 0.0 0.00 0.00 0.00 91 1015.9
20260903023101 23 0 0.0 0.0 0.00 0.00 0.00 92 1015.9
20260903022536 23 0 0.0 0.0 0.00 0.00 0.00 91 1015.9
20260903022038 23 0 0.0 0.0 0.00 0.00 0.00 91 1015.8
20260903021604 23 0 0.0 0.0 0.00 0.00 0.00 91 1015.9
20260903021038 23 0 0.0 0.0 0.00 0.00 0.00 91 1016.0
20260903020537 23 0 0.0 0.0 0.00 0.00 0.00 91 1016.2
20260903020059 23 0 0.0 0.0 0.00 0.00 0.00 90 1016.3
20260903015538 23 0 0.0 0.0 0.00 0.00 0.00 90 1016.4
20260903015036 23 0 0.0 0.0 0.00 0.00 0.00 91 1016.4
20260903014601 23 0 0.0 0.0 0.00 0.00 0.00 91 1016.5
20260903014045 23 0 0.0 0.0 0.00 0.00 0.00 90 1016.6
20260903013538 23 0 0.0 0.0 0.00 0.00 0.00 90 1016.5
20260903013057 23 0 0.0 0.0 0.00 0.00 0.00 90 1016.5
20260903012541 23 0 0.0 0.0 0.00 0.00 0.00 90 1016.4
20260903012035 23 0 0.0 0.0 0.00 0.00 0.00 90 1016.3
20260903011606 24 0 0.0 0.0 0.00 0.00 0.00 89 1016.4
20260903011038 24 0 0.0 0.0 0.00 0.00 0.00 89 1016.4
20260903010542 24 0 0.0 0.0 0.00 0.00 0.00 89 1016.7
20260903010058 24 0 0.0 0.0 0.00 0.00 0.00 88 1016.7
20260903005539 24 0 0.0 0.0 0.00 0.00 0.00 88 1016.7
20260903005036 24 0 0.0 0.0 0.00 0.00 0.00 88 1016.8
20260903004609 24 0 0.0 0.0 0.00 0.00 0.00 88 1016.6
20260903004038 24 0 0.0 0.0 0.00 0.00 0.00 88 1016.6
20260903003537 24 0 0.0 0.0 0.00 0.00 0.00 88 1016.7
20260903003059 24 0 0.0 0.0 0.00 0.00 0.00 87 1016.4
20260903002535 24 0 0.0 0.0 0.00 0.00 0.00 87 1016.3
20260903002038 24 0 0.0 0.0 0.00 0.00 0.00 87 1016.2
20260903001602 24 0 0.0 0.0 0.00 0.00 0.00 87 1016.1
20260903001040 25 0 0.0 0.0 0.00 0.00 0.00 87 1016.4
20260903000537 25 0 0.0 0.0 0.00 0.00 0.00 86 1016.3
20260903000059 25 0 0.0 0.0 0.00 0.00 0.00 86 1016.2
20260902235536 25 0 0.0 0.0 0.00 0.00 0.00 85 1016.3
20260902235035 25 0 0.0 0.0 0.00 0.00 0.00 86 1016.4
20260902234557 25 0 0.0 0.0 0.00 0.00 0.00 86 1016.1
20260902234035 25 0 0.0 0.0 0.00 0.00 0.00 85 1015.9
20260902233535 25 0 0.0 0.0 0.00 0.00 0.00 84 1016.1
20260902233104 25 0 0.0 0.0 0.00 0.00 0.00 84 1016.3
20260902232537 25 0 0.0 0.0 0.00 0.00 0.00 84 1016.6
20260902232038 25 0 0.0 0.0 0.00 0.00 0.00 84 1016.6
20260902231607 25 0 0.0 0.0 0.00 0.00 0.00 84 1016.7
20260902231038 25 0 0.0 0.0 0.00 0.00 0.00 84 1016.7
20260902230537 25 0 0.0 0.0 0.00 0.00 0.00 84 1016.7
20260902230105 25 0 0.0 0.0 0.00 0.00 0.00 82 1017.0
20260902225540 25 0 0.0 0.0 0.00 0.00 0.00 82 1017.0
20260902225041 25 0 0.0 0.0 0.00 0.00 0.00 81 1016.9
20260902224558 25 0 0.0 0.0 0.00 0.00 0.00 81 1016.9
20260902224035 25 0 0.0 0.0 0.00 0.00 0.00 81 1017.0
20260902223535 25 0 0.0 0.0 0.00 0.00 0.00 82 1017.0
20260902223114 25 0 0.0 3.2 0.00 0.00 0.00 82 1017.0
20260902222534 25 0 0.0 4.8 0.00 0.00 0.00 81 1017.2
20260902222038 25 0 0.0 6.4 0.00 0.00 0.00 81 1017.0
20260902221601 25 0 1.6 6.4 0.00 0.00 0.00 81 1017.1
20260902221041 25 78 0.0 4.8 0.00 0.00 0.00 80 1017.0
20260902220538 25 79 0.0 4.8 0.00 0.00 0.00 81 1016.7
20260902215535 25 0 0.0 1.6 0.00 0.00 0.00 83 1016.3
20260902215037 25 0 0.0 1.6 0.00 0.00 0.00 81 1016.5
20260902214557 25 0 0.0 4.8 0.00 0.00 0.00 81 1016.5
20260902214035 25 0 0.0 4.8 0.00 0.00 0.00 79 1016.6
20260902213538 25 0 0.0 0.0 0.00 0.00 0.00 80 1016.3
20260902213107 26 0 0.0 0.0 0.00 0.00 0.00 81 1016.3
20260902212536 25 0 0.0 0.0 0.00 0.00 0.00 79 1016.6
20260902212038 25 0 0.0 1.6 0.00 0.00 0.00 80 1016.6
20260902211600 25 0 0.0 4.8 0.00 0.00 0.00 80 1016.8
20260902211035 25 0 0.0 9.7 0.00 0.00 0.00 80 1016.9
20260902210541 26 55 1.6 9.7 0.00 0.00 0.00 79 1016.8
20260902210100 26 69 0.0 16.1 0.00 0.00 0.00 80 1016.7
20260902205537 26 0 4.8 16.1 0.00 0.00 0.00 79 1017.3
20260902205037 26 41 3.2 16.1 0.00 0.00 0.00 78 1017.2
20260902204635 26 65 6.4 16.1 0.00 0.00 0.00 77 1017.3
20260902204035 26 67 6.4 17.7 0.00 0.00 0.00 77 1017.2
20260902203538 26 66 9.7 17.7 0.00 0.00 0.00 76 1017.1
20260902203104 27 93 8.0 17.7 0.00 0.00 0.00 75 1016.9
20260902202538 27 74 4.8 14.5 0.00 0.00 0.00 76 1017.1
20260902202038 27 37 6.4 19.3 0.00 0.00 0.00 74 1017.4
20260902201601 27 42 8.0 19.3 0.00 0.00 0.00 74 1017.3
20260902201040 27 70 1.6 12.9 0.00 0.00 0.00 75 1017.4
20260902200537 27 63 6.4 14.5 0.00 0.00 0.00 74 1017.1
20260902200059 27 78 4.8 17.7 0.00 0.00 0.00 74 1017.3
20260902195537 27 78 4.8 19.3 0.00 0.00 0.00 74 1017.3
20260902195037 28 51 4.8 19.3 0.00 0.00 0.00 74 1017.5
20260902194557 28 44 6.4 17.7 0.00 0.00 0.00 72 1017.7
20260902194039 28 314 4.8 20.9 0.00 0.00 0.00 71 1017.5
20260902193537 29 70 8.0 33.8 0.00 0.00 0.00 70 1017.3
20260902193105 29 84 9.7 33.8 0.00 0.00 0.00 69 1017.8
20260902192537 31 331 16.1 33.8 0.00 0.00 0.00 65 1017.5
20260902192036 32 86 4.8 16.1 0.00 0.00 0.00 67 1016.9
20260902191603 32 21 6.4 14.5 0.00 0.00 0.00 67 1016.6
20260902191037 32 17 4.8 17.7 0.00 0.00 0.00 67 1016.4
20260902190535 32 95 6.4 19.3 0.00 0.00 0.00 66 1016.2
20260902185534 32 72 4.8 22.5 0.00 0.00 0.00 65 1016.5
20260902185035 32 80 6.4 22.5 0.00 0.00 0.00 64 1016.6
20260902184556 33 336 9.7 17.7 0.00 0.00 0.00 64 1016.9
20260902184038 33 85 6.4 17.7 0.00 0.00 0.00 63 1016.9
20260902183538 33 48 4.8 12.9 0.00 0.00 0.00 62 1016.9
20260902183113 33 41 3.2 9.7 0.00 0.00 0.00 63 1016.8
20260902182538 33 44 3.2 11.3 0.00 0.00 0.00 63 1016.7
20260902182035 33 58 3.2 12.9 0.00 0.00 0.00 62 1016.6
20260902181613 33 57 3.2 12.9 0.00 0.00 0.00 63 1016.5
20260902181037 33 101 1.6 12.9 0.00 0.00 0.00 65 1016.5
20260902180537 33 68 3.2 12.9 0.00 0.00 0.00 63 1016.6
20260902180104 33 22 3.2 9.7 0.00 0.00 0.00 63 1016.7
20260902175539 33 81 1.6 8.0 0.00 0.00 0.00 61 1016.8
20260902175043 33 34 3.2 8.0 0.00 0.00 0.00 63 1016.8